Location: Home
(42.5358°N, 72.7383°W)
Time: 18:15:22
(UTC-05:00)

Tiros 1 - Pass Details

Date: 06 December 2021
Orbit: 629 x 664 km, 48.4° (Epoch: 18 January)

Event Time Altitude Azimuth Distance (km) Brightness Sun altitude
Rises 00:11:12 0° 292° (WNW) 2,959 - -69.1°
Reaches altitude 10° 00:13:45 10° 281° (WNW) 2,052 - -68.9°
Maximum altitude 00:17:51 30° 221° (SW) 1,169 - -68.6°
Drops below altitude 10° 00:22:00 10° 161° (SSE) 2,060 - -68.3°
Sets 00:24:33 0° 150° (SSE) 2,973 - -68.1°
